Portada
METAR-TAF:

METAR-TAF

Aeroports :

El Papalon

San Miguel, El Salvador

latitud: 13-27N, longitud: 088-07W, altitud: 80 m

Observació

L'informe es va fer fa 2 hores i 27 minuts, a les 21:50 UTC
Vent 4 kt del Sud/Sud-Oest
Temperatura 31°C
Humitat 59%
Pressió 1008 hPa
Visibilitat 10 km o més
sense núvols per sota de 1500 mi sense presència de cumulonimbus.

METAR: MSSM 052150Z 21004KT CAVOK 31/22 Q1007 A2976

Hora: 18:17 (00:17 UTC)


TAF: manca

Observacions i pronòstics meteorològics de més de 4000 aeroports (METAR i TAF).

Les estacions disponibles són els punts grocs i vermells al mapa.

Posi el ratolí al punt desitjat per veure el nom de l'estació.

Feu clic per veure les observacions i els pronòstics meteorològics.

Per canviar el mapa: feu clic els botons verds amb una creu de color negre per apropar; al botó verd amb un guió per allunyar la imatge; o en les fletxes verdes per a mapes adjacents.


METAR-TAF: